Lapse_Rate
7.7 7.5 7.4 7.4 7.5 7.5 7.6 7.5 7.6 7.7 7.8 7.8 7.6 7.3 7.2 7.0 7.0 7.0 6.9 6.8 6.7 6.5 6.5 6.5 6.5 6.5 6.6 6.6 6.6 6.7 6.6 6.4 6.4 6.4 6.4 6.4 6.4 6.3 6.3 6.3 6.4 6.5 6.4
7.8 7.7 7.6 7.6 7.5 7.5 7.5 7.4 7.3 7.4 7.5 7.6 7.6 7.3 7.2 7.1 7.0 6.9 6.9 6.8 6.7 6.6 6.6 6.4 6.4 6.4 6.4 6.4 6.4 6.4 6.4 6.4 6.4 6.3 6.1 6.1 6.3 6.3 6.1 6.2 6.2 6.2 6.2
7.9 7.7 7.6 7.8 7.6 7.5 7.5 7.4 7.3 7.2 7.3 7.4 7.6 7.4 7.4 7.2 7.1 6.9 6.8 6.7 6.7 6.6 6.5 6.4 6.3 6.2 6.3 6.2 6.2 6.2 6.2 6.3 6.3 6.3 6.3 6.3 6.3 6.2 6.0 6.0 6.1 6.1 6.2
7.8 7.7 7.8 7.8 7.5 7.4 7.3 7.3 7.2 7.3 7.4 7.3 7.4 7.4 7.3 7.2 7.0 7.0 6.8 6.7 6.7 6.7 6.6 6.5 6.4 6.3 6.3 6.2 6.2 6.1 6.2 6.2 6.1 6.2 6.2 6.2 6.2 6.2 6.1 6.1 6.1 6.1 6.2
7.9 7.9 7.7 7.7 7.5 7.1 7.1 7.2 7.2 7.2 7.3 7.3 7.3 7.3 7.1 7.0 6.9 6.8 6.9 6.8 6.8 6.7 6.7 6.6 6.6 6.4 6.2 6.1 6.1 6.1 6.2 6.1 6.1 6.1 6.1 6.1 6.2 6.2 6.2 6.1 6.1 6.2 6.2
8.3 8.0 7.8 7.6 7.5 7.4 7.3 7.1 7.1 7.1 7.1 7.2 6.9 7.0 7.0 6.7 6.6 6.7 6.8 6.8 6.9 6.9 6.9 6.8 6.7 6.5 6.4 6.2 6.3 6.3 6.3 6.2 6.1 6.1 6.0 6.1 6.1 6.1 6.1 6.1 6.1 6.0 6.0
8.4 8.2 8.1 7.6 7.5 7.6 7.3 6.9 7.1 7.0 6.9 7.0 6.9 6.7 6.8 6.8 6.8 6.7 6.8 6.9 7.1 7.0 6.9 6.7 6.7 6.6 6.5 6.5 6.4 6.4 6.3 6.3 6.2 6.1 6.1 6.1 6.0 6.0 6.1 6.2 6.2 6.1 6.0
8.4 8.2 8.0 7.7 7.2 7.6 7.3 7.2 7.0 6.9 7.0 7.0 6.8 6.9 6.6 6.7 7.0 7.1 7.0 7.0 7.0 7.0 7.0 6.9 6.8 6.6 6.4 6.6 6.5 6.4 6.4 6.3 6.2 6.2 6.0 6.0 6.0 6.0 6.0 6.0 6.0 6.1 6.1
8.2 8.2 8.1 7.9 7.5 7.5 7.4 7.2 7.2 7.0 7.0 6.9 6.7 6.6 6.6 7.0 7.3 7.1 7.0 7.1 6.9 6.9 6.9 6.8 6.7 6.6 6.5 6.5 6.4 6.3 6.3 6.3 6.2 6.1 6.0 5.9 5.9 5.9 5.9 6.0 6.1 6.2 6.2
7.7 8.3 8.2 8.2 7.8 7.4 7.3 7.4 7.1 7.0 7.0 6.9 6.6 6.6 6.5 6.8 6.9 7.1 7.1 7.1 7.0 7.0 7.0 6.9 6.8 6.6 6.5 6.5 6.4 6.4 6.3 6.2 6.1 6.1 5.8 5.7 5.7 5.8 5.9 6.0 6.1 6.2 6.2
7.6 8.0 8.3 8.4 8.3 7.7 7.4 7.1 7.0 6.8 6.8 6.9 7.0 6.9 6.7 6.8 6.9 7.0 7.3 7.3 7.2 7.2 7.1 6.8 6.6 6.5 6.6 6.5 6.4 6.3 6.3 6.2 6.0 5.9 5.8 5.8 5.7 5.8 5.8 5.9 6.0 6.1 6.2
7.5 7.6 7.9 8.1 8.2 8.1 7.9 7.6 7.3 6.8 6.7 6.7 6.7 6.9 6.7 6.9 7.2 7.2 7.3 7.4 7.2 7.0 6.9 6.5 6.4 6.6 6.6 6.6 6.5 6.4 6.3 6.1 5.9 5.8 5.8 5.7 5.7 5.7 5.8 5.9 5.8 5.8 5.9
6.9 7.0 7.3 7.6 7.9 8.1 7.9 7.7 7.7 7.2 7.0 6.7 6.6 6.7 6.8 7.0 7.0 7.0 6.9 7.0 7.1 7.1 6.9 6.7 6.6 6.6 6.6 6.5 6.5 6.4 6.3 6.1 5.9 5.7 5.8 5.8 5.7 5.7 5.8 5.7 5.4 5.5 5.6
6.7 6.7 6.8 7.4 7.5 7.5 7.8 7.9 7.8 7.2 7.2 6.9 6.7 6.7 6.8 6.8 6.7 6.8 6.8 6.6 6.8 6.9 6.8 7.0 6.9 6.9 6.8 6.7 6.5 6.3 6.0 5.9 5.8 5.8 5.9 6.0 5.7 5.6 5.9 5.7 5.7 5.5 5.5
6.1 6.1 6.3 6.5 7.0 7.1 7.2 7.4 7.1 7.1 6.9 6.9 6.7 6.7 6.7 7.0 6.9 7.0 6.7 6.5 6.3 6.4 6.9 7.1 7.0 6.8 6.5 6.3 6.4 6.1 5.8 5.7 5.7 5.7 6.0 6.0 6.1 6.2 5.9 5.8 5.7 5.7 5.4
6.1 6.0 5.5 6.2 6.6 6.8 6.6 6.7 6.7 6.6 6.6 6.6 6.6 6.6 6.6 6.7 6.8 6.8 6.9 6.7 6.1 5.7 5.6 6.5 6.7 6.6 6.2 6.2 6.1 6.0 6.0 5.9 5.8 5.8 6.0 6.1 6.1 6.0 6.1 6.2 6.2 5.6 5.7
6.1 6.3 6.1 5.9 6.3 6.2 6.3 6.3 6.5 6.6 6.6 6.6 6.5 6.5 6.4 6.6 6.7 6.7 6.7 6.7 6.2 6.0 5.7 6.0 6.1 6.1 6.0 6.0 6.4 5.9 5.8 5.9 5.9 6.0 6.0 5.8 6.1 6.3 6.2 5.9 5.8 5.7 5.3
6.1 6.0 5.7 5.9 5.0 5.7 6.0 5.9 6.0 6.3 6.4 6.4 6.5 6.4 6.3 6.6 6.5 6.7 6.7 6.5 6.6 6.4 5.8 5.7 5.9 6.0 6.2 6.0 5.6 5.5 5.6 5.7 5.8 5.7 6.1 5.9 6.0 6.0 5.9 5.9 5.5 5.0 5.2
6.0 5.7 5.9 6.1 6.3 5.6 5.5 4.4 5.8 5.9 6.0 6.2 6.2 6.4 6.3 5.9 5.6 5.3 6.0 6.1 6.0 6.3 5.8 5.7 5.9 5.7 5.5 5.9 5.9 5.7 5.8 5.6 6.0 6.1 6.4 5.9 6.1 5.8 5.8 5.5 5.5 5.2 5.1
5.4 5.9 5.6 5.7 6.1 5.8 5.5 5.8 5.4 5.4 5.2 5.7 5.5 6.0 5.9 5.8 5.9 5.9 5.7 5.6 5.6 5.6 5.9 5.9 6.0 5.9 5.8 5.8 6.1 5.9 5.8 5.8 6.1 5.9 6.0 6.2 5.8 5.7 5.6 5.5 5.4 5.1 5.0
5.2 5.2 5.5 5.8 5.6 6.0 5.5 5.6 5.4 5.8 6.1 5.7 5.5 5.7 5.7 5.8 5.7 5.8 5.5 5.6 5.7 5.7 5.9 5.9 6.2 5.9 5.4 5.7 6.2 6.2 6.4 6.0 6.2 5.7 6.2 6.2 5.9 5.7 5.5 5.7 5.4 5.3 5.4
5.3 4.8 4.9 5.2 5.3 5.4 5.8 5.8 5.6 6.2 5.9 6.0 5.7 5.9 5.8 5.6 5.7 5.8 5.7 6.2 6.2 5.7 5.9 5.9 6.1 5.7 5.9 5.8 6.2 5.9 6.2 6.1 5.8 6.5 6.1 6.1 5.6 5.6 5.3 5.3 5.3 5.5 5.1
4.5 5.0 4.8 4.8 5.3 5.2 5.4 5.8 5.7 6.1 6.1 5.9 5.9 6.0 5.9 5.4 5.4 5.6 5.3 5.9 5.5 5.7 5.7 5.9 6.0 5.4 5.9 6.1 5.9 6.2 5.7 5.6 5.6 5.3 5.6 5.4 5.3 5.3 5.8 5.4 5.7 5.4 5.1
3.8 4.6 4.8 5.2 5.0 4.8 4.8 5.2 5.4 5.5 5.8 5.9 5.8 5.7 6.1 6.1 5.9 6.3 5.9 5.8 5.1 6.1 6.1 5.5 5.1 5.8 5.9 6.0 5.3 4.8 4.8 5.5 5.1 5.3 5.3 5.2 6.0 5.9 5.9 5.5 5.7 5.5 5.0
4.6 4.4 4.8 5.0 5.0 4.6 4.6 4.8 4.9 5.3 5.6 5.6 5.7 5.7 5.7 5.9 6.1 6.0 5.7 5.6 5.7 5.8 6.1 5.8 5.6 5.7 5.6 5.6 5.0 5.2 5.3 5.0 4.9 5.2 5.5 5.8 6.0 6.2 5.9 5.7 5.5 5.3 4.9
4.5 4.9 4.8 4.7 4.9 5.0 4.8 4.7 4.6 4.8 4.8 5.2 5.4 5.6 5.7 5.8 5.7 5.8 5.7 5.5 5.9 6.4 6.1 5.7 6.0 6.0 5.8 5.5 5.2 5.3 5.1 5.3 5.3 5.4 5.6 5.4 5.7 5.5 5.3 5.4 5.4 5.1 4.8
Wind_Speed
12 13 14 16 15 14 12 9 10 10 11 13 15 17 13 14 17 18 20 20 18 15 15 15 14 14 13 13 13 12 11 9 10 9 9 7 7 6 7 6 6 6 7
10 9 10 9 11 15 11 12 9 7 7 11 10 14 14 14 16 18 19 20 18 17 15 15 15 15 15 14 14 13 12 13 12 12 11 11 11 11 11 11 10 11 12
17 13 9 9 12 16 12 10 7 9 6 7 7 10 13 14 14 16 18 19 19 16 15 15 15 15 15 15 14 14 13 13 13 12 11 11 11 12 11 11 10 10 12
22 14 10 11 16 15 13 7 6 5 5 6 4 5 6 11 12 13 16 19 20 19 16 16 16 15 15 16 16 15 15 14 14 13 13 12 12 12 11 11 11 10 11
23 14 12 11 18 11 9 9 5 8 6 5 6 5 4 4 9 12 12 16 20 21 20 19 18 17 16 16 16 16 15 14 14 13 13 13 13 12 12 12 12 12 11
24 15 11 12 16 9 9 9 10 4 4 8 7 5 3 3 7 8 11 14 17 21 22 21 21 18 18 17 16 16 16 16 15 15 14 14 13 13 13 12 13 12 12
22 14 11 12 11 13 13 11 7 9 3 6 6 4 4 2 2 4 10 11 12 17 22 22 22 21 20 20 18 18 17 17 16 15 15 15 15 14 14 13 13 13 12
20 17 15 14 15 11 13 14 14 7 3 10 6 4 3 1 3 3 3 6 8 15 16 19 20 23 23 21 21 21 20 18 18 17 17 17 17 16 15 14 14 13 13
16 18 17 15 15 13 12 14 13 16 11 8 10 5 3 5 3 2 6 4 7 6 14 17 19 21 23 24 25 23 22 21 21 21 19 18 18 17 17 16 15 13 13
18 20 18 16 16 11 14 15 12 11 11 13 3 8 2 5 4 2 2 6 5 8 9 13 16 19 21 22 24 24 27 26 25 23 22 21 19 18 17 16 15 14 14
18 20 18 18 17 13 13 16 15 15 13 12 13 12 2 1 3 3 3 7 3 8 8 12 16 19 20 21 22 25 32 31 29 27 25 23 21 20 19 17 16 15 14
12 17 18 17 17 16 16 16 17 19 16 12 12 12 11 7 4 4 3 5 10 7 10 9 12 17 20 23 25 28 36 37 33 31 27 25 24 22 21 20 18 17 17
11 16 18 18 16 18 16 16 16 19 19 17 17 14 12 11 4 4 4 3 3 3 5 8 11 17 19 21 25 31 36 42 39 35 32 29 28 25 22 21 21 21 22
9 14 16 17 19 19 17 17 14 14 17 16 19 17 13 12 8 4 5 4 1 2 3 4 9 16 19 22 25 30 28 42 41 38 36 33 31 28 26 24 24 24 23
10 11 16 16 17 17 18 18 14 17 15 17 17 16 13 11 9 8 7 6 6 5 9 6 5 16 20 22 25 26 29 29 39 41 40 38 36 36 35 33 30 25 23
12 14 11 12 15 16 16 17 16 17 18 14 13 16 14 11 10 9 6 7 7 10 8 9 9 5 19 20 24 26 27 29 38 41 44 42 42 41 38 34 30 28 25
7 1 11 12 15 15 17 17 18 18 19 19 17 18 18 18 11 11 10 11 10 10 11 10 7 10 12 14 15 25 26 26 25 41 42 42 43 41 40 39 35 32 28
6 6 5 3 7 16 15 19 19 17 18 19 20 19 20 13 18 14 11 15 12 15 13 17 6 5 10 15 13 12 17 24 26 30 38 41 45 43 43 40 40 37 35
6 2 2 4 2 2 5 19 19 19 19 19 19 19 19 19 17 14 12 13 12 11 12 11 12 3 6 6 7 7 10 14 22 24 36 39 41 42 41 41 41 40 38
4 5 3 4 5 5 4 5 12 15 14 13 16 17 18 18 19 18 15 14 13 11 12 10 12 4 3 3 6 8 8 8 9 17 26 33 36 40 41 38 41 39 40
5 5 5 5 4 2 6 6 6 5 12 13 14 14 14 17 18 19 13 15 15 13 12 12 12 8 4 3 14 7 10 7 6 4 7 12 19 26 30 37 39 42 40
2 2 3 3 3 2 7 5 6 2 4 13 14 14 14 14 15 13 15 14 16 17 16 13 12 12 13 11 7 9 8 3 3 7 10 9 18 12 22 30 37 38 37
3 5 4 3 4 4 7 8 6 4 4 4 7 13 14 13 15 16 19 21 20 16 17 13 13 14 7 13 11 8 11 10 8 4 10 6 5 10 19 24 32 36 39
4 4 4 5 4 5 9 10 8 4 6 6 6 6 10 11 13 17 15 14 18 16 13 10 9 12 11 13 15 15 13 7 3 2 6 4 1 1 0 12 28 36 41
3 4 3 3 4 5 9 7 5 5 6 7 5 6 7 8 12 18 17 15 11 14 13 18 18 14 15 16 12 7 5 7 1 3 1 3 1 3 2 2 15 33 38
4 2 4 5 6 5 7 7 4 1 4 6 7 7 8 7 9 16 15 13 13 10 8 4 4 6 13 16 20 16 11 11 4 2 3 4 2 3 2 2 1 17 24
Wind_Direction
173 170 177 170 167 163 165 155 157 145 144 139 143 145 144 146 148 153 155 158 157 160 159 158 157 153 154 160 157 157 162 156 151 152 158 150 143 131 134 133 134 128 116
175 176 175 169 163 164 165 167 165 149 145 146 143 151 149 150 152 156 158 162 161 166 166 161 162 160 159 159 154 155 155 155 153 152 148 143 138 131 124 134 133 129 130
178 172 169 173 168 164 160 150 141 137 134 148 143 147 150 154 157 159 160 162 166 168 172 170 167 168 167 166 166 161 165 163 160 158 154 154 142 142 143 140 141 136 129
177 175 173 181 165 164 167 173 165 145 144 151 135 148 146 156 163 163 164 164 167 171 176 172 176 178 177 176 175 173 173 169 165 164 165 164 157 158 152 146 141 138 136
176 178 182 176 166 171 175 172 173 171 161 143 143 134 139 153 163 165 169 171 173 174 176 177 183 185 188 186 184 182 180 177 175 172 172 168 168 165 161 160 153 155 148
176 179 177 173 170 171 173 176 176 155 163 153 138 119 118 146 160 173 181 177 181 180 181 181 188 194 196 196 194 191 187 185 184 181 181 180 177 176 174 171 166 159 158
179 182 178 168 175 178 179 179 169 170 133 135 110 71 48 57 188 197 186 184 186 188 187 189 189 185 192 200 203 201 198 194 192 189 188 187 186 183 182 181 175 170 170
182 183 180 178 178 179 175 175 175 175 153 172 155 116 138 325 258 225 212 199 195 191 194 192 190 189 187 194 202 207 205 200 198 197 198 196 194 194 190 188 188 181 181
181 185 184 179 179 179 180 185 183 183 181 190 166 150 146 210 130 195 222 211 203 203 202 197 195 195 193 193 201 211 207 205 200 202 198 200 199 198 196 192 190 185 186
181 186 185 180 182 182 183 184 183 186 181 191 163 200 130 142 174 174 241 213 210 212 210 206 203 202 198 196 199 203 207 212 204 201 202 200 203 201 201 198 193 194 192
184 187 185 183 184 186 184 183 179 186 195 193 200 189 134 137 119 140 174 193 222 218 216 213 208 207 202 200 202 205 208 213 212 205 201 202 202 200 205 200 198 196 190
183 190 188 189 189 189 183 187 186 188 193 202 204 203 202 182 173 154 130 178 208 217 214 211 212 210 207 206 205 206 210 213 216 208 202 203 200 202 201 201 199 197 195
190 195 188 189 191 193 188 191 189 191 193 197 195 206 210 218 153 165 131 144 182 187 201 215 215 215 213 211 212 208 210 213 215 212 205 200 197 197 199 202 206 201 197
193 203 197 193 197 193 191 188 193 200 196 201 203 206 206 213 207 189 171 140 126 156 200 225 209 213 212 213 216 214 213 214 213 212 207 201 197 190 196 200 205 204 205
190 205 201 198 200 200 199 192 198 195 202 203 208 204 210 207 206 200 198 194 186 179 222 212 191 212 213 214 215 209 215 215 210 210 208 202 196 195 195 200 203 202 205
205 196 197 209 195 197 202 201 205 203 198 202 202 205 205 206 199 201 188 207 210 228 245 204 213 189 203 211 215 209 213 213 210 208 208 203 196 196 197 198 203 198 197
69 105 209 209 209 199 201 203 207 209 202 202 203 203 204 203 199 196 193 201 208 214 229 248 208 195 192 208 208 209 214 210 209 208 206 201 198 195 194 196 199 200 199
62 59 31 110 277 236 220 203 207 207 205 209 210 208 211 204 207 195 194 203 208 216 218 235 205 185 196 203 205 199 206 210 212 211 206 200 200 197 192 194 196 198 201
98 90 54 24 291 44 314 218 207 209 204 209 211 212 213 210 210 207 202 206 211 217 220 221 228 184 199 176 196 198 205 207 212 210 204 204 199 197 193 195 194 196 199
65 91 78 78 325 353 12 324 211 199 202 217 231 215 216 215 213 211 210 206 207 211 215 221 230 173 171 200 196 200 209 205 204 200 205 207 206 202 199 194 195 194 194
21 16 27 15 38 270 54 357 10 266 201 199 205 215 225 217 215 216 212 210 213 213 214 214 219 211 166 166 200 204 216 206 210 172 193 202 202 203 206 199 200 195 193
18 52 358 356 342 69 70 42 348 335 299 214 213 214 215 218 220 214 220 222 217 214 219 219 218 219 201 209 191 204 197 152 205 203 197 211 197 201 203 208 207 198 190
349 342 332 337 3 358 9 18 5 318 295 289 230 213 215 213 206 218 221 221 222 226 230 222 226 227 191 203 197 183 187 191 210 158 189 200 202 204 202 207 204 193 185
207 192 265 310 340 332 338 344 348 312 284 269 268 264 223 210 196 206 215 221 229 230 224 227 229 229 203 196 194 201 199 161 64 108 155 172 222 131 298 196 195 189 185
217 212 203 218 285 307 316 322 338 325 312 298 284 281 286 228 202 199 210 219 221 222 209 212 211 199 184 178 176 132 143 155 144 210 118 112 156 87 19 2 188 187 188
247 205 215 236 248 260 283 297 297 203 280 292 295 281 264 261 253 198 212 221 225 224 199 186 194 213 186 181 169 187 171 185 142 133 213 102 132 134 132 341 358 183 188